Location: Hilderbrand
(37.5756°N, 89.8540°W)
Time: 11:40:48
(UTC+00:00)

CZ-2D R/B - Pass Details

Date: 15 November 2025
Orbit: 404 x 413 km, 97.4° (Epoch: 05 December)

Event Time Altitude Azimuth Distance (km) Brightness Sun altitude
Rises 23:19:53 0° 155° (SSE) 2,333 6.5 -6.7°
Reaches altitude 10° 23:21:55 10° 149° (SSE) 1,473 5.4 -7.1°
Maximum altitude 23:24:56 45° 75° (ENE) 573 3.0 -7.6°
Drops below altitude 10° 23:27:58 10° 2° (N) 1,477 5.3 -8.2°
Sets 23:30:00 0° 355° (N) 2,340 6.4 -8.6°
